Location: Unspecified
(49.2170°N, 0.0000°E)
Time: 18:11:05
(UTC+00:00)

A-11 Canister half - Pass Details

Date: 29 January 2021
Orbit: 1516 x 1684 km, 47.2° (Epoch: 05 March)

Event Time Altitude Azimuth Distance (km) Brightness Sun altitude
Rises 19:04:10 0° 228° (SW) 4,783 12.4 -21.6°
Reaches altitude 10° 19:07:23 10° 224° (SW) 3,777 11.6 -22.1°
Maximum altitude 19:16:30 53° 151° (SSE) 1,836 9.2 -23.6°
Enters shadow 19:19:44 39° 101° (E) 2,169 9.2 -24.1°
